Find Local Weather

World > North America > United States > North Carolina

Beargrass, North Carolina Regional Weather

Lat: 35.77N, Lon: 77.13W
Wx Zone: NCZ029
Warning FLW WEATHER ALERT - (More Info. Click Here) Warning
Feedback

Beargrass, NC Regional Weather

Expires:201905230800;;315085
ASUS42 KMHX 230725
RWRMHX
WEATHER ROUNDUP FOR EASTERN NORTH CAROLINA
NATIONAL WEATHER SERVICE NEWPORT/MOREHEAD CITY NC
300 AM EDT THU MAY 23 2019

NOTE: "FAIR" INDICATES FEW OR NO CLOUDS BELOW 12,000 FEET
WITH NO SIGNIFICANT WEATHER AND/OR OBSTRUCTIONS TO VISIBILITY


NCZ011>013-027>030-043-044-078>080-089-090>093-098-230800-
COASTAL PLAIN
  
CITY           SKY/WX    TMP DP  RH WIND       PRES   REMARKS
AHOSKIE        FAIR      56  53  89 CALM      30.26S                  
CLINTON        FAIR      62  60  95 CALM      30.26S                  
ELIZABETHTOWN  FAIR      63  59  85 CALM      30.24F                  
GOLDSBORO      NOT AVBL                                               
GREENVILLE     FAIR      61  52  72 CALM      30.26F                  
HAVELOCK       FAIR      65  54  67 N3        30.26S                  
KENANSVILLE    FAIR      57  55  94 CALM      30.26S                  
KINSTON        FAIR      61  55  82 CALM      30.26F                  
NEW BERN       FAIR      61  57  87 CALM      30.26S                  
RICHLANDS      FAIR      58  56  93 CALM      30.25F                  
ROCKY MOUNT    FAIR      63  54  72 CALM      30.25F                  
WASHINGTON     FAIR      58  51  78 CALM      30.26F                  
WHITEVILLE       N/A     62  61  95 CALM      30.23F                  

$$


SKY/WX - Weather  TMP - Temperature  DP - Dew Point  RH - Relative Humidity
WIND - Wind Direction/Speed PRES - Barometric Pressure VSB - Visibility
WCI - Wind Chill Index E13G22 Wind - East Wind 13 mph/Gusts of 22 mph